Tracking 22879 objects as of 20-Apr-2021
HD Live streaming from Space Station
objects crossing your sky now

IRIDIUM 145

Track IRIDIUM 145 now!
10-day predictions
IRIDIUM 145 is classified as:


NORAD ID: 43253
Int'l Code: 2018-030G
Perigee: 784.1 km
Apogee: 785.5 km
Inclination: 86.4 °
Period: 100.4 minutes
Semi major axis: 7155 km
RCS: Unknown
Launch date: March 30, 2018
Source: United States (US)
Launch site: AIR FORCE WESTERN TEST RANGE (AFWTR)
aabbcc
Your satellite tracking list
Your tracking list is empty




NASA's NSSDC Master Catalog

Two Line Element Set (TLE):
1 43253U 18030E   21110.16345432  .00000093  00000-0  25991-4 0  9994
2 43253  86.4006 357.7683 0000961  60.7440 299.3852 14.34220304160085
Source of the keplerian elements: AFSPC